STARLINK-32645, 62321

Orbit data source: Space-Track

STARLINK-32645, 62321 is a payload satellite owned by SpaceX/Seattle (US) in LEO that was launched on Fri, 13 Dec 2024 UTC via an FALCON 9 launch vehicle from the Air Force Western Test Range (AFWTR). Payload-class satellites include a variety of spacecraft equipped with specific instruments for various scientific and technological missions. These include communications satellites like Starlink; space stations such as the ISS; scientific satellites like the Hubble; Earth observation satellites from companies like Planet Labs, Umbra, and HawkEye 360; GPS; miniature CubeSats for education and research; and military/defense satellites.

Loading next visibility...
Identifier
62321, 2024-239W
Orbit
LEO
Country
Flag of USUS
Related business
Manufacturer
SpaceX/Seattle
Mission
Operational Commercial Communications
Bus & Motor
STARLINK V2M, Unknown motor
Mass
730 kg wet, ~700 kg dry
Launch date (UTC)
2024-12-13 (2 years ago)
Launch vehicle
FALCON 9
Launch site
Air Force Western Test Range (AFWTR)
Object type
Payload
Rocket body
Debris
Shape & HBR
Box + 2 Pan, 17.7 m
Radar Cross Section
33.884 m², Large (>1 m²)

Expand to show TLE details & history
Last TLE update: 11 hours ago

TLE from 11 hours ago
0 STARLINK-32645
1 62321U 24239W   26171.40750340  .00010752  00000-0  37449-3 0  9999
2 62321  53.1599  63.7993 0001965  88.7484 271.3742 15.30211615 85290
Epoch: 2026-06-20T09:46Z
TLE epoch observation values (Epoch: 2026-06-20T09:46:48.293Z)
Latitude
-0.00003°
Longitude
8.47549°
Altitude
476.048 km
Speed
7.629 km/s
True Right ascension
04h 15m 11s
True Declination
0° 00' 00"
Sunlit
Object was in daylight at epoch
Visualization orbit readout
Latitude
Unknown
Longitude
Unknown
Altitude
Unknown
Speed
Unknown
Apparent Right ascension
Unknown
Apparent Declination
Unknown
Sunlit
N/A
Visualization observer readout
Local Sidereal Time
07:16:28
Azimuth
Unknown
Elevation
Unknown
Doppler factor
Unknown
Orbital elements
Apogee altitude
476.784 km
Perigee altitude
474.09 km
Semi-major axis
6,853.574 km
Eccentricity
0.0002
Inclination
53.1599°
RAAN
63.7993°
Arg. of periapsis
88.7484°
True anomaly
271.35169°
Mean anomaly
271.3742°
Eccentric anomaly
271.36294°
Mean motion
3.82532 °/min
Orbital period
94.11 mins
BSTAR
0.00037449
Loading maneuver chart data...
Computing Atmospheric mass density...
Loading historical data...
Loading historical data...
Loading historical data...
Loading historical data...
Loading historical data...
Loading historical data...
Loading historical data...

Documentation

Showing up to 5 results
|